Camarillo, CA

11:52 AM PDT on September 21, 2017 (GMT -0700)
Camarillo

Weather History for KCMA - January, 2013

Change the Weather History Date:

Monday, January 28, 2013

  Actual Average Record
Temperature  
Mean Temperature 50 °F 54 °F  
Max Temperature 61 °F 66 °F 84 °F (1971)
Min Temperature 39 °F 42 °F 33 °F (1957)
Degree Days  
Heating Degree Days 15 11  
Month to date heating degree days 264 308  
Since 1 July heating degree days 810 989  
Cooling Degree Days 0 0  
Month to date cooling degree days 20 0  
Year to date cooling degree days 20 0  
Moisture  
Dew Point 33 °F    
Average Humidity 56    
Maximum Humidity 76    
Minimum Humidity 35    
Precipitation  
Precipitation 0.00 in 0.05 in 1.55 in (1981)
Month to date precipitation 1.07 3.24  
Year to date precipitation 1.07 3.24  
Since 1 July precipitation 3.78  
Sea Level Pressure  
Sea Level Pressure 30.14 in    
Wind  
Wind Speed 7 mph (NNW)    
Max Wind Speed 22 mph    
Max Gust Speed 25 mph    
Visibility 10 miles    
Events      
T = Trace of Precipitation, MM = Missing Value Source: NWS Daily Summary

Daily Weather History Graph

Daily Weather History Graph

Search for Another Location

Airport or City:

Trip Planner

Search our weather history database for the weather conditions in past years. The results will help you decide how hot, cold, wet, or windy it might be!

Date:

Astronomy

Jan. 28, 2013 Rise Set
Actual Time 6:56 AM PST 5:22 PM PST
Civil Twilight 6:29 AM PST 5:49 PM PST
Nautical Twilight 5:59 AM PST 6:19 PM PST
Astronomical Twilight 5:29 AM PST 6:49 PM PST
Moon 7:14 PM PST (1/28) 7:31 AM PST (1/28)
Length of Visible Light 11h 19m
Length of Day
10h 26m
Full, 97% of the Moon is Illuminated
Jan 28
Full
Feb 3
Last Quarter
Feb 9
New
Feb 17
First Quarter
Feb 25
Full

Hourly Weather History & Observations

Time (PST) Temp. Windchill Dew Point Humidity Pressure Visibility Wind Dir Wind Speed Gust Speed Precip Events Conditions
12:55 AM 42.1 °F - 34.0 °F 73% 30.07 in 10.0 mi Calm Calm - N/A   Clear
1:55 AM 41.0 °F 38.0 °F 33.1 °F 73% 30.09 in 10.0 mi ENE 4.6 mph - N/A   Clear
2:55 AM 41.0 °F 39.0 °F 33.1 °F 73% 30.10 in 10.0 mi SSW 3.5 mph - N/A   Clear
4:55 AM 42.1 °F - 32.0 °F 67% 30.09 in 10.0 mi Calm Calm - N/A   Clear
5:55 AM 39.9 °F 36.7 °F 32.0 °F 73% 30.11 in 10.0 mi ENE 4.6 mph - N/A   Clear
6:55 AM 42.1 °F 39.2 °F 30.9 °F 65% 30.13 in 10.0 mi East 4.6 mph - N/A   Clear
7:55 AM 42.1 °F - 33.1 °F 70% 30.14 in 10.0 mi Calm Calm - N/A   Clear
8:55 AM 48.0 °F - 33.1 °F 56% 30.15 in 10.0 mi Calm Calm - N/A   Clear
9:55 AM 54.0 °F - 30.9 °F 41% 30.17 in 10.0 mi West 3.5 mph - N/A   Clear
10:55 AM 57.0 °F - 30.9 °F 37% 30.17 in 10.0 mi Variable 4.6 mph - N/A   Clear
11:55 AM 57.9 °F - 33.1 °F 39% 30.15 in 10.0 mi West 12.7 mph - N/A   Clear
12:55 PM 60.1 °F - 32.0 °F 35% 30.13 in 10.0 mi West 10.4 mph - N/A   Clear
1:55 PM 60.1 °F - 36.0 °F 41% 30.13 in 10.0 mi West 16.1 mph - N/A   Clear
2:55 PM 60.1 °F - 36.0 °F 41% 30.11 in 10.0 mi West 17.3 mph - N/A   Clear
3:55 PM 61.0 °F - 34.0 °F 36% 30.12 in 10.0 mi West 18.4 mph 23.0 mph N/A   Clear
4:55 PM 57.0 °F - 35.1 °F 44% 30.12 in 10.0 mi WNW 11.5 mph - N/A   Clear
5:55 PM 53.1 °F - 30.9 °F 43% 30.14 in 10.0 mi NW 6.9 mph - N/A   Clear
6:55 PM 54.0 °F - 36.0 °F 51% 30.16 in 10.0 mi East 9.2 mph - N/A   Clear
7:55 PM 48.0 °F - 34.0 °F 58% 30.19 in 10.0 mi North 4.6 mph - N/A   Clear
8:55 PM 48.0 °F - 32.0 °F 54% 30.20 in 10.0 mi NNE 6.9 mph - N/A   Clear
9:55 PM 48.0 °F - 32.0 °F 54% 30.21 in 10.0 mi Calm Calm - N/A   Clear
10:55 PM 44.1 °F 40.1 °F 33.1 °F 65% 30.22 in 10.0 mi NE 6.9 mph - N/A   Clear
11:55 PM 46.9 °F - 30.9 °F 54% 30.22 in 10.0 mi ENE 9.2 mph - N/A   Clear